Weather observations for the past three days for
Marshall
Imperial (Metric)
Date Time (cdt) Wind (mph) Vis. (mi.) Weather Sky Cond. Temperature (ºF) Relative Humidity Wind Chill (°F) Heat Index (°F) Pressure Precipitation (in)
Air Dwpt 6 hour altimeter (in) sea level (mb) 1 hr 3 hr 6 hr
Max. Min.
24 01:35 Calm 10.00 Fair CLR 76.5 76.5 100% 76 29.91 0.0
24 01:15 Calm 8.00 Fair CLR 76.3 76.3 100% 76 29.92 0.0
24 00:35 Calm 10.00 Fair CLR 77.2 77.2 100% 78 29.92 0.0
24 00:15 Calm 9.00 NULL NULL 77.4 77.4 100% 79 29.92 0.0
23 23:55 Calm 9.00 Fair CLR 77.7 77.7 100% 80 29.92 0.0
23 23:35 Calm 8.00 Fair CLR 77.7 77.7 100% 80 29.92 0.0
23 23:15 Calm 8.00 Fair CLR 78.1 78.1 100% 81 29.92 0.0
23 22:55 Calm 8.00 Fair CLR 78.8 78.8 100% 83 0 0.0
23 22:35 Calm 8.00 Fair CLR 79 79 100% 84 29.91 0.0
23 22:15 Calm 9.00 Fair CLR 79.5 79.5 100% 86 29.91 0.0
23 21:55 Calm 9.00 NULL NULL 80.1 80.1 100% 87 29.9 0.0
23 21:35 Calm 10.00 Fair CLR 80.2 79.9 99% 88 29.9 0.0
23 21:15 Calm 10.00 Fair CLR 81 80.2 98% 90 29.89 0.0
23 20:55 Calm 9.00 Fair CLR 81.5 80.1 95% 91 29.88 0.0
23 20:35 Calm 9.00 Fair CLR 82.8 80.2 92% 95 29.88 0.0
23 19:35 Calm 10.00 NULL NULL 86.9 79.9 80% 102 29.88 0.0
23 18:55 Calm 0.00 Fair CLR 91.4 77.9 96.4 91.4 65% 106 0 0.0
23 18:35 Calm 9.00 A Few Clouds FEW055 92.8 75.4 57% 105 29.88 0.0
23 18:15 Calm 10.00 Partly Cloudy SCT055 94.5 74.1 52% 105 29.88 0.0
23 17:55 Calm 10.00 A Few Clouds FEW055 94.1 74.3 53% 105 29.89 0.0
23 16:15 Calm 10.00 Fair CLR 94.8 73.8 51% 105 29.91 0.0
23 15:55 Vrbl 3 10.00 NULL NULL 95 74.1 51% 106 29.92 0.0
23 15:35 Vrbl 5 10.00 NULL NULL 95.5 75 52% 108 29.92 0.0
23 15:15 Calm 0.00 Fair CLR 95 75.4 53% 108 29.93 0.0
23 14:55 Vrbl 5 10.00 A Few Clouds FEW050 94.1 75.9 56% 107 29.93 0.0
23 14:35 NW 6 10.00 Partly Cloudy SCT050 93.7 74.3 53% 105 29.94 0.0
23 14:15 S 5 10.00 Partly Cloudy FEW050 SCT340 92.1 73.9 55% 102 29.95 0.0
23 13:55 NW 5 9.00 A Few Clouds FEW230 92.1 75.4 58% 104 29.95 0.0
23 13:15 SW 6 9.00 Partly Cloudy FEW260 SCT340 SCT380 93.2 76.8 59% 107 29.96 0.0
23 12:55 Calm 10.00 A Few Clouds FEW039 91.8 76.6 92.3 74.8 61% 105 29.97 0.0
23 12:35 W 5 10.00 A Few Clouds FEW038 90.7 77 64% 104 29.98 0.0
23 12:15 SW 5 9.00 A Few Clouds FEW370 90.1 77.5 67% 104 29.98 0.0
23 11:55 S 6 9.00 Fair CLR 90.1 77.5 67% 104 29.99 0.0
23 11:35 Vrbl 6 9.00 Fair CLR 90.3 77.5 66% 104 29.99 0.0
23 10:35 W 7 9.00 Fair CLR 88.2 77.5 71% 101 29.99 0.0
23 10:15 Vrbl 6 10.00 Fair CLR 87.3 77.7 73% 100 29.99 0.0
23 09:55 W 6 10.00 Fair CLR 85.6 78.1 78% 98 29.99 0.0
23 09:35 SW 6 9.00 Fair CLR 85.1 77.4 78% 96 29.99 0.0
23 09:15 W 8 10.00 Fair CLR 84.2 77 79% 94 29.99 0.0
23 08:55 SW 8 9.00 Fair CLR 82.9 77.2 83% 92 29.99 0.0
23 08:35 SW 9 10.00 Fair CLR 82 77.4 86% 90 29.99 0.0
23 08:15 S 5 10.00 Fair CLR 80.4 78.3 93% 87 29.98 0.0
23 07:35 S 3 8.00 Fair CLR 76.1 76.1 100% 75 29.98 0.0
23 06:55 S 5 5.00 Fog/Mist CLR 74.5 74.5 76.1 74.1 100% 29.98 0.0
22 18:55 S 5 10.00 Fair CLR 91.6 76.1 94.5 88.7 61% 104 29.94 0.0
22 18:35 Calm 10.00 Fair CLR 92.3 75.2 58% 104 29.94 0.0
22 17:15 SW 6 10.00 Fair CLR 92.8 75.6 57% 105 29.96 0.0
22 16:55 SW 6 10.00 Fair CLR 93.7 75.2 55% 106 29.97 0.0
22 16:35 SW 5 10.00 Fair CLR 94.1 74.8 54% 106 29.97 0.0
22 16:15 S 6 10.00 Fair CLR 93.4 74.3 54% 104 29.98 0.0
22 15:35 S 5 10.00 Fair CLR 93.6 75.4 56% 106 29.99 0.0
22 14:55 Calm 10.00 Fair CLR 93.4 75.2 56% 105 30 0.0
22 14:35 S 9 10.00 A Few Clouds FEW340 93 75.4 57% 105 30 0.0
22 14:15 Vrbl 7 10.00 Partly Cloudy FEW280 SCT370 92.3 75.2 58% 104 30.01 0.0
22 13:55 SW 8 10.00 Partly Cloudy FEW270 SCT290 SCT330 SCT360 92.3 76.8 61% 106 30.02 0.0
22 13:35 Vrbl 3 10.00 Partly Cloudy FEW042 SCT320 90.7 75.7 62% 102 30.03 0.0
22 13:15 SW 5 10.00 A Few Clouds FEW043 89.1 75.7 65% 100 30.04 0.0
22 12:55 Vrbl 6 10.00 A Few Clouds FEW310 91.8 74.7 91.8 72.9 57% 102 30.04 0.0
22 12:35 S 6 9.00 A Few Clouds FEW350 91.2 74.8 59% 102 30.05 0.0
22 11:55 Vrbl 7 10.00 A Few Clouds FEW035 89.2 75.9 65% 101 30.06 0.0
22 11:35 Vrbl 5 10.00 A Few Clouds FEW035 87.6 75.9 68% 98 30.06 0.0
22 10:55 Vrbl 3 10.00 Fair CLR 88.2 76.1 68% 99 30.07 0.0
22 10:35 Vrbl 3 10.00 Fair CLR 87.3 76.6 71% 99 30.07 0.0
21 17:55 SE 3 10.00 Fair CLR 91.4 67.6 46% 95 30.06 0.0
21 17:35 Vrbl 3 10.00 Fair CLR 91.8 69.3 48% 97 30.06 0.0
21 17:15 Vrbl 3 10.00 Fair CLR 91.6 68.5 47% 96 30.07 0.0
21 16:55 SE 5 10.00 Fair CLR 92.7 69.6 47% 98 30.08 0.0
21 16:35 Vrbl 5 10.00 Fair CLR 92.1 69.6 48% 98 30.09 0.0
21 15:35 Vrbl 3 10.00 Fair CLR 92.1 68.7 46% 97 30.1 0.0
21 15:15 Vrbl 3 10.00 Fair CLR 91.6 71.1 51% 98 30.11 0.0
21 14:55 Vrbl 3 10.00 A Few Clouds FEW360 91.8 70.3 50% 98 30.11 0.0
21 14:35 E 5 10.00 Fair CLR 90.5 70.9 53% 97 30.12 0.0
21 14:15 NE 5 10.00 A Few Clouds FEW300 90.9 69.1 49% 96 30.13 0.0
21 13:55 E 6 10.00 A Few Clouds FEW360 88.3 70.2 55% 94 30.13 0.0
21 13:35 Calm 10.00 Partly Cloudy FEW240 SCT360 90.7 71.2 53% 97 30.14 0.0
21 12:55 Vrbl 3 10.00 A Few Clouds FEW047 88 73.4 89.1 70.2 62% 96 30.15 0.0
21 09:35 Vrbl 3 10.00 Fair CLR 81.9 73.8 77% 88 30.18 0.0
21 08:55 Calm 10.00 Fair CLR 79.9 73.8 82% 84 30.18 0.0
Date Time (cdt) Wind (mph) Vis. (mi.) Weather Sky Cond. Air Dwpt Max. Min. Relative Humidity Wind Chill (°F) Heat Index (°F) altimeter (in) sea level (mb) 1 hr 3 hr 6 hr
6 hour
Temperature (ºF) Pressure Precipitation (in)